owner,sensor,date,latitude,longitude,vertical_datum,direction_of_sea_water_velocity,sea_water_speed,upward_sea_water_velocity,qcFlag 
TABS,ioos:station:wmo:42046:1,2005-01-01T00:00:00Z,27.8903,-94.0367,2.0,91.34161619,31.17854711,-99999.0,'11111222,11111222,99999999' 
TABS,ioos:station:wmo:42046:1,2005-01-01T00:30:00Z,27.8903,-94.0367,2.0,90.36275337,28.43056981,-99999.0,'11111222,11111222,99999999' 
TABS,ioos:station:wmo:42046:1,2005-01-01T01:00:00Z,27.8903,-94.0367,2.0,92.19452744,30.03202624,-99999.0,'11111222,11111222,99999999' 
TABS,ioos:station:wmo:42046:1,2005-01-01T01:30:00Z,27.8903,-94.0367,2.0,93.09460364,27.97078833,-99999.0,'11111222,11111222,99999999' 
TABS,ioos:station:wmo:42046:1,2005-01-01T02:00:00Z,27.8903,-94.0367,2.0,88.97506041,37.45599284,-99999.0,'11111222,11111222,99999999' 
TABS,ioos:station:wmo:42046:1,2005-01-01T02:30:00Z,27.8903,-94.0367,2.0,98.43968027,32.97711328,-99999.0,'11111222,11111222,99999999' 
TABS,ioos:station:wmo:42046:1,2005-01-01T03:00:00Z,27.8903,-94.0367,2.0,94.31326912,31.37887347,-99999.0,'11111222,11111222,99999999' 
TABS,ioos:station:wmo:42046:1,2005-01-01T03:30:00Z,27.8903,-94.0367,2.0,103.117133,29.78720699,-99999.0,'11111222,11111222,99999999' 
TABS,ioos:station:wmo:42046:1,2005-01-01T04:00:00Z,27.8903,-94.0367,2.0,102.0143901,28.39191786,-99999.0,'11111222,11111222,99999999' 
TABS,ioos:station:wmo:42046:1,2005-01-01T04:30:00Z,27.8903,-94.0367,2.0,99.7170816,27.72780734,-99999.0,'11111222,11111222,99999999' 
TABS,ioos:station:wmo:42046:1,2005-01-01T05:00:00Z,27.8903,-94.0367,2.0,103.0464283,24.85148285,-99999.0,'11111222,11111222,99999999' 
TABS,ioos:station:wmo:42046:1,2005-01-01T05:30:00Z,27.8903,-94.0367,2.0,98.45655072,24.81985093,-99999.0,'11111222,11111222,99999999' 
TABS,ioos:station:wmo:42046:1,2005-01-01T06:00:00Z,27.8903,-94.0367,2.0,105.552386,23.8326184,-99999.0,'11111222,11111222,99999999' 
TABS,ioos:station:wmo:42046:1,2005-01-01T06:30:00Z,27.8903,-94.0367,2.0,100.3344785,20.73640277,-99999.0,'11111222,11111222,99999999' 
TABS,ioos:station:wmo:42046:1,2005-01-01T07:00:00Z,27.8903,-94.0367,2.0,94.49423417,22.07788486,-99999.0,'11111222,11111222,99999999' 
TABS,ioos:station:wmo:42046:1,2005-01-01T07:30:00Z,27.8903,-94.0367,2.0,100.2580846,20.83300506,-99999.0,'11111222,11111222,99999999' 
TABS,ioos:station:wmo:42046:1,2005-01-01T08:00:00Z,27.8903,-94.0367,2.0,96.84954198,20.1236279,-99999.0,'11111222,11111222,99999999' 
TABS,ioos:station:wmo:42046:1,2005-01-01T08:30:00Z,27.8903,-94.0367,2.0,93.24508367,18.01889286,-99999.0,'11111222,11111222,99999999' 
TABS,ioos:station:wmo:42046:1,2005-01-01T09:00:00Z,27.8903,-94.0367,2.0,91.18593943,17.39372588,-99999.0,'11111222,11111222,99999999' 
TABS,ioos:station:wmo:42046:1,2005-01-01T09:30:00Z,27.8903,-94.0367,2.0,92.7733995,17.3603341,-99999.0,'11111222,11111222,99999999' 
TABS,ioos:station:wmo:42046:1,2005-01-01T10:00:00Z,27.8903,-94.0367,2.0,87.1953521,16.34958409,-99999.0,'11111222,11111222,99999999' 
TABS,ioos:station:wmo:42046:1,2005-01-01T10:30:00Z,27.8903,-94.0367,2.0,96.54295264,16.84974777,-99999.0,'11111222,11111222,99999999' 
TABS,ioos:station:wmo:42046:1,2005-01-01T11:00:00Z,27.8903,-94.0367,2.0,102.9435107,15.13454988,-99999.0,'11111222,11111222,99999999' 
TABS,ioos:station:wmo:42046:1,2005-01-01T11:30:00Z,27.8903,-94.0367,2.0,113.0389926,15.56118569,-99999.0,'11111222,11111222,99999999' 
TABS,ioos:station:wmo:42046:1,2005-01-01T12:00:00Z,27.8903,-94.0367,2.0,102.7329643,14.60927445,-99999.0,'11111222,11111222,99999999' 
TABS,ioos:station:wmo:42046:1,2005-01-01T12:30:00Z,27.8903,-94.0367,2.0,108.2029408,11.71633475,-99999.0,'11111222,11111222,99999999' 
TABS,ioos:station:wmo:42046:1,2005-01-01T13:00:00Z,27.8903,-94.0367,2.0,106.7968592,14.04941636,-99999.0,'11111222,11111222,99999999' 
TABS,ioos:station:wmo:42046:1,2005-01-01T13:30:00Z,27.8903,-94.0367,2.0,102.0710123,11.81115574,-99999.0,'11111222,11111222,99999999' 
TABS,ioos:station:wmo:42046:1,2005-01-01T14:00:00Z,27.8903,-94.0367,2.0,102.2466625,12.11571294,-99999.0,'11111222,11111222,99999999' 
TABS,ioos:station:wmo:42046:1,2005-01-01T14:30:00Z,27.8903,-94.0367,2.0,100.5277615,11.49347641,-99999.0,'11111222,11111222,99999999' 
TABS,ioos:station:wmo:42046:1,2005-01-01T15:30:00Z,27.8903,-94.0367,2.0,98.12357765,12.45497892,-99999.0,'11111222,11111222,99999999' 
TABS,ioos:station:wmo:42046:1,2005-01-01T16:30:00Z,27.8903,-94.0367,2.0,100.3888335,10.98,-99999.0,'11111222,11111222,99999999' 
TABS,ioos:station:wmo:42046:1,2005-01-01T17:00:00Z,27.8903,-94.0367,2.0,93.97434134,12.84088003,-99999.0,'11111222,11111222,99999999' 
TABS,ioos:station:wmo:42046:1,2005-01-01T17:30:00Z,27.8903,-94.0367,2.0,91.97492939,11.6068945,-99999.0,'11111222,11111222,99999999' 
TABS,ioos:station:wmo:42046:1,2005-01-01T18:00:00Z,27.8903,-94.0367,2.0,81.42599891,11.13443757,-99999.0,'11111222,11111222,99999999' 
TABS,ioos:station:wmo:42046:1,2005-01-01T18:30:00Z,27.8903,-94.0367,2.0,79.70442931,11.07837533,-99999.0,'11111222,11111222,99999999' 
TABS,ioos:station:wmo:42046:1,2005-01-01T19:00:00Z,27.8903,-94.0367,2.0,50.40842474,12.00354114,-99999.0,'11111222,11111222,99999999' 
TABS,ioos:station:wmo:42046:1,2005-01-01T19:30:00Z,27.8903,-94.0367,2.0,36.63230794,18.31815766,-99999.0,'11111222,11111222,99999999' 
TABS,ioos:station:wmo:42046:1,2005-01-01T20:00:00Z,27.8903,-94.0367,2.0,39.03495991,17.89477298,-99999.0,'11111222,11111222,99999999' 
TABS,ioos:station:wmo:42046:1,2005-01-01T20:30:00Z,27.8903,-94.0367,2.0,42.83867651,21.56088356,-99999.0,'11111222,11111222,99999999' 
TABS,ioos:station:wmo:42046:1,2005-01-01T21:30:00Z,27.8903,-94.0367,2.0,64.17758491,22.42964556,-99999.0,'11111222,11111222,99999999' 
TABS,ioos:station:wmo:42046:1,2005-01-01T22:00:00Z,27.8903,-94.0367,2.0,72.80781364,26.8287495,-99999.0,'11111222,11111222,99999999' 
TABS,ioos:station:wmo:42046:1,2005-01-01T22:30:00Z,27.8903,-94.0367,2.0,68.86508826,24.90528659,-99999.0,'11111222,11111222,99999999' 
TABS,ioos:station:wmo:42046:1,2005-01-01T23:00:00Z,27.8903,-94.0367,2.0,68.11105267,25.50899841,-99999.0,'11111222,11111222,99999999' 
TABS,ioos:station:wmo:42046:1,2005-01-01T23:30:00Z,27.8903,-94.0367,2.0,72.11930205,25.82752989,-99999.0,'11111222,11111222,99999999' 
TABS,ioos:station:wmo:42046:1,2005-01-02T00:00:00Z,27.8903,-94.0367,2.0,53.7205985,19.21502017,-99999.0,'11111222,11111222,99999999' 
TABS,ioos:station:wmo:42046:1,2005-01-02T00:30:00Z,27.8903,-94.0367,2.0,52.89391921,24.25020618,-99999.0,'11111222,11111222,99999999' 
TABS,ioos:station:wmo:42046:1,2005-01-02T01:00:00Z,27.8903,-94.0367,2.0,53.31078053,21.57410717,-99999.0,'11111222,11111222,99999999' 
TABS,ioos:station:wmo:42046:1,2005-01-02T01:30:00Z,27.8903,-94.0367,2.0,63.23924071,19.63279145,-99999.0,'11111222,11111222,99999999' 
TABS,ioos:station:wmo:42046:1,2005-01-02T02:00:00Z,27.8903,-94.0367,2.0,68.73650318,18.19894502,-99999.0,'11111222,11111222,99999999' 
TABS,ioos:station:wmo:42046:1,2005-01-02T02:30:00Z,27.8903,-94.0367,2.0,66.00204149,16.3755061,-99999.0,'11111222,11111222,99999999' 
TABS,ioos:station:wmo:42046:1,2005-01-02T03:00:00Z,27.8903,-94.0367,2.0,74.35640292,15.90932117,-99999.0,'11111222,11111222,99999999' 
TABS,ioos:station:wmo:42046:1,2005-01-02T03:30:00Z,27.8903,-94.0367,2.0,82.76839095,15.33196008,-99999.0,'11111222,11111222,99999999' 
TABS,ioos:station:wmo:42046:1,2005-01-02T04:00:00Z,27.8903,-94.0367,2.0,79.84855644,12.02829996,-99999.0,'11111222,11111222,99999999' 
TABS,ioos:station:wmo:42046:1,2005-01-02T04:30:00Z,27.8903,-94.0367,2.0,100.8138522,10.87308604,-99999.0,'11111222,11111222,99999999' 
TABS,ioos:station:wmo:42046:1,2005-01-02T05:00:00Z,27.8903,-94.0367,2.0,95.54034463,10.04693486,-99999.0,'11111222,11111222,99999999' 
TABS,ioos:station:wmo:42046:1,2005-01-02T05:30:00Z,27.8903,-94.0367,2.0,89.47058918,9.740415802,-99999.0,'11133222,11111222,99999999' 
TABS,ioos:station:wmo:42046:1,2005-01-02T06:00:00Z,27.8903,-94.0367,2.0,76.50429828,11.31236492,-99999.0,'11111222,11111222,99999999' 
TABS,ioos:station:wmo:42046:1,2005-01-02T07:00:00Z,27.8903,-94.0367,2.0,84.09616976,8.555378425,-99999.0,'11133222,11111222,99999999' 
TABS,ioos:station:wmo:42046:1,2005-01-02T07:30:00Z,27.8903,-94.0367,2.0,98.75898069,10.17870817,-99999.0,'11111222,11111222,99999999' 
TABS,ioos:station:wmo:42046:1,2005-01-02T08:00:00Z,27.8903,-94.0367,2.0,96.7186544,11.36806932,-99999.0,'11111222,11111222,99999999' 
TABS,ioos:station:wmo:42046:1,2005-01-02T08:30:00Z,27.8903,-94.0367,2.0,118.3632872,12.39839506,-99999.0,'11111222,11111222,99999999' 
TABS,ioos:station:wmo:42046:1,2005-01-02T09:00:00Z,27.8903,-94.0367,2.0,115.6021277,14.37100205,-99999.0,'11111222,11111222,99999999' 
TABS,ioos:station:wmo:42046:1,2005-01-02T09:30:00Z,27.8903,-94.0367,2.0,119.2168244,14.40228454,-99999.0,'11111222,11111222,99999999' 
TABS,ioos:station:wmo:42046:1,2005-01-02T10:00:00Z,27.8903,-94.0367,2.0,119.8885964,13.34493912,-99999.0,'11111222,11111222,99999999' 
TABS,ioos:station:wmo:42046:1,2005-01-02T10:30:00Z,27.8903,-94.0367,2.0,113.3821063,13.93431017,-99999.0,'11111222,11111222,99999999' 
TABS,ioos:station:wmo:42046:1,2005-01-02T11:00:00Z,27.8903,-94.0367,2.0,119.8458622,11.95572666,-99999.0,'11111222,11111222,99999999' 
TABS,ioos:station:wmo:42046:1,2005-01-02T11:30:00Z,27.8903,-94.0367,2.0,120.1497878,15.09168314,-99999.0,'11111222,11111222,99999999' 
TABS,ioos:station:wmo:42046:1,2005-01-02T12:00:00Z,27.8903,-94.0367,2.0,116.5829613,14.25717013,-99999.0,'11111222,11111222,99999999' 
TABS,ioos:station:wmo:42046:1,2005-01-02T12:30:00Z,27.8903,-94.0367,2.0,119.1693923,12.59760295,-99999.0,'11111222,11111222,99999999' 
TABS,ioos:station:wmo:42046:1,2005-01-02T13:00:00Z,27.8903,-94.0367,2.0,120.3548536,15.49405693,-99999.0,'11111222,11111222,99999999' 
TABS,ioos:station:wmo:42046:1,2005-01-02T13:30:00Z,27.8903,-94.0367,2.0,122.4345758,14.43121616,-99999.0,'11111222,11111222,99999999' 
TABS,ioos:station:wmo:42046:1,2005-01-02T14:00:00Z,27.8903,-94.0367,2.0,125.3210653,15.68773087,-99999.0,'11111222,11111222,99999999' 
TABS,ioos:station:wmo:42046:1,2005-01-02T14:30:00Z,27.8903,-94.0367,2.0,124.0801393,13.84841146,-99999.0,'11111222,11111222,99999999' 
TABS,ioos:station:wmo:42046:1,2005-01-02T15:30:00Z,27.8903,-94.0367,2.0,123.9625973,13.4072555,-99999.0,'11111222,11111222,99999999' 
TABS,ioos:station:wmo:42046:1,2005-01-02T16:00:00Z,27.8903,-94.0367,2.0,130.2645051,13.10499523,-99999.0,'11111222,11111222,99999999' 
TABS,ioos:station:wmo:42046:1,2005-01-02T16:30:00Z,27.8903,-94.0367,2.0,131.9801411,12.2145528,-99999.0,'11111222,11111222,99999999' 
TABS,ioos:station:wmo:42046:1,2005-01-02T17:00:00Z,27.8903,-94.0367,2.0,128.5410935,12.06913419,-99999.0,'11111222,11111222,99999999' 
TABS,ioos:station:wmo:42046:1,2005-01-02T17:30:00Z,27.8903,-94.0367,2.0,111.5952599,12.38967312,-99999.0,'11111222,11111222,99999999' 
TABS,ioos:station:wmo:42046:1,2005-01-02T18:00:00Z,27.8903,-94.0367,2.0,104.4717763,11.80454997,-99999.0,'11111222,11111222,99999999' 
TABS,ioos:station:wmo:42046:1,2005-01-02T18:30:00Z,27.8903,-94.0367,2.0,99.46230008,11.98304218,-99999.0,'11111222,11111222,99999999' 
TABS,ioos:station:wmo:42046:1,2005-01-02T19:00:00Z,27.8903,-94.0367,2.0,98.76904175,15.21788422,-99999.0,'11111222,11111222,99999999' 
TABS,ioos:station:wmo:42046:1,2005-01-02T19:30:00Z,27.8903,-94.0367,2.0,109.4170206,13.83699751,-99999.0,'11111222,11111222,99999999' 
TABS,ioos:station:wmo:42046:1,2005-01-02T20:00:00Z,27.8903,-94.0367,2.0,114.1366698,16.36034841,-99999.0,'11111222,11111222,99999999' 
TABS,ioos:station:wmo:42046:1,2005-01-02T20:30:00Z,27.8903,-94.0367,2.0,114.4471359,14.64283101,-99999.0,'11111222,11111222,99999999' 
TABS,ioos:station:wmo:42046:1,2005-01-02T21:30:00Z,27.8903,-94.0367,2.0,105.6982947,13.37904331,-99999.0,'11111222,11111222,99999999' 
TABS,ioos:station:wmo:42046:1,2005-01-02T22:00:00Z,27.8903,-94.0367,2.0,97.68727197,12.26018352,-99999.0,'11111222,11111222,99999999' 
TABS,ioos:station:wmo:42046:1,2005-01-02T22:30:00Z,27.8903,-94.0367,2.0,99.71025212,10.25694886,-99999.0,'11111222,11111222,99999999' 
TABS,ioos:station:wmo:42046:1,2005-01-02T23:00:00Z,27.8903,-94.0367,2.0,89.81306544,12.26006525,-99999.0,'11111222,11111222,99999999' 
TABS,ioos:station:wmo:42046:1,2005-01-02T23:30:00Z,27.8903,-94.0367,2.0,82.02794899,13.84378922,-99999.0,'11111222,11111222,99999999' 
TABS,ioos:station:wmo:42046:1,2005-01-03T00:00:00Z,27.8903,-94.0367,2.0,96.25902167,14.03365241,-99999.0,'11111222,11111222,99999999' 
TABS,ioos:station:wmo:42046:1,2005-01-03T00:30:00Z,27.8903,-94.0367,2.0,98.6875107,20.06015454,-99999.0,'11111222,11111222,99999999' 
TABS,ioos:station:wmo:42046:1,2005-01-03T01:00:00Z,27.8903,-94.0367,2.0,102.1895526,23.63281828,-99999.0,'11111222,11111222,99999999' 
TABS,ioos:station:wmo:42046:1,2005-01-03T01:30:00Z,27.8903,-94.0367,2.0,108.8723946,21.95000911,-99999.0,'11111222,11111222,99999999' 
TABS,ioos:station:wmo:42046:1,2005-01-03T02:00:00Z,27.8903,-94.0367,2.0,100.9505411,25.95255864,-99999.0,'11111222,11111222,99999999' 
TABS,ioos:station:wmo:42046:1,2005-01-03T02:30:00Z,27.8903,-94.0367,2.0,107.2653612,36.25357913,-99999.0,'11111222,11111222,99999999' 
TABS,ioos:station:wmo:42046:1,2005-01-03T03:00:00Z,27.8903,-94.0367,2.0,110.3610958,36.12729993,-99999.0,'11111222,11111222,99999999' 
TABS,ioos:station:wmo:42046:1,2005-01-03T03:30:00Z,27.8903,-94.0367,2.0,116.2175364,36.87343895,-99999.0,'11111222,11111222,99999999' 
TABS,ioos:station:wmo:42046:1,2005-01-03T04:00:00Z,27.8903,-94.0367,2.0,115.2651605,35.68341071,-99999.0,'11111222,11111222,99999999' 
TABS,ioos:station:wmo:42046:1,2005-01-03T04:30:00Z,27.8903,-94.0367,2.0,112.3755855,34.64877631,-99999.0,'11111222,11111222,99999999' 
TABS,ioos:station:wmo:42046:1,2005-01-03T05:00:00Z,27.8903,-94.0367,2.0,113.9880211,31.82907476,-99999.0,'11111222,11111222,99999999' 
TABS,ioos:station:wmo:42046:1,2005-01-03T05:30:00Z,27.8903,-94.0367,2.0,110.2706393,31.49031121,-99999.0,'11111222,11111222,99999999' 
TABS,ioos:station:wmo:42046:1,2005-01-03T06:00:00Z,27.8903,-94.0367,2.0,109.3245025,36.05114839,-99999.0,'11111222,11111222,99999999' 
TABS,ioos:station:wmo:42046:1,2005-01-03T06:30:00Z,27.8903,-94.0367,2.0,104.4491967,33.98497462,-99999.0,'11111222,11111222,99999999' 
TABS,ioos:station:wmo:42046:1,2005-01-03T07:00:00Z,27.8903,-94.0367,2.0,104.3140974,33.00463604,-99999.0,'11111222,11111222,99999999' 
TABS,ioos:station:wmo:42046:1,2005-01-03T07:30:00Z,27.8903,-94.0367,2.0,100.9051429,35.25667738,-99999.0,'11111222,11111222,99999999' 
TABS,ioos:station:wmo:42046:1,2005-01-03T08:00:00Z,27.8903,-94.0367,2.0,103.4236113,31.53143352,-99999.0,'11111222,11111222,99999999' 
TABS,ioos:station:wmo:42046:1,2005-01-03T08:30:00Z,27.8903,-94.0367,2.0,100.8295859,31.34830458,-99999.0,'11111222,11111222,99999999' 
TABS,ioos:station:wmo:42046:1,2005-01-03T09:00:00Z,27.8903,-94.0367,2.0,102.3433074,28.81610834,-99999.0,'11111222,11111222,99999999' 
TABS,ioos:station:wmo:42046:1,2005-01-03T09:30:00Z,27.8903,-94.0367,2.0,103.4086385,27.90054659,-99999.0,'11111222,11111222,99999999' 
TABS,ioos:station:wmo:42046:1,2005-01-03T10:00:00Z,27.8903,-94.0367,2.0,95.5876763,27.83224928,-99999.0,'11111222,11111222,99999999' 
TABS,ioos:station:wmo:42046:1,2005-01-03T10:30:00Z,27.8903,-94.0367,2.0,91.99838547,26.09587132,-99999.0,'11111222,11111222,99999999' 
TABS,ioos:station:wmo:42046:1,2005-01-03T11:00:00Z,27.8903,-94.0367,2.0,89.59109595,23.82060663,-99999.0,'11111222,11111222,99999999' 
TABS,ioos:station:wmo:42046:1,2005-01-03T11:30:00Z,27.8903,-94.0367,2.0,88.37242233,21.82880666,-99999.0,'11111222,11111222,99999999' 
TABS,ioos:station:wmo:42046:1,2005-01-03T12:00:00Z,27.8903,-94.0367,2.0,85.43586318,23.37412244,-99999.0,'11111222,11111222,99999999' 
TABS,ioos:station:wmo:42046:1,2005-01-03T12:30:00Z,27.8903,-94.0367,2.0,78.20519808,17.61185964,-99999.0,'11111222,11111222,99999999' 
TABS,ioos:station:wmo:42046:1,2005-01-03T13:00:00Z,27.8903,-94.0367,2.0,75.35446593,24.40288917,-99999.0,'11111222,11111222,99999999' 
TABS,ioos:station:wmo:42046:1,2005-01-03T13:30:00Z,27.8903,-94.0367,2.0,75.29002271,24.33770737,-99999.0,'11111222,11111222,99999999' 
TABS,ioos:station:wmo:42046:1,2005-01-03T14:00:00Z,27.8903,-94.0367,2.0,76.51629679,24.1455441,-99999.0,'11111222,11111222,99999999' 
TABS,ioos:station:wmo:42046:1,2005-01-03T14:30:00Z,27.8903,-94.0367,2.0,71.96172237,25.12489801,-99999.0,'11111222,11111222,99999999' 
TABS,ioos:station:wmo:42046:1,2005-01-03T15:00:00Z,27.8903,-94.0367,2.0,71.63261564,24.15033126,-99999.0,'11111222,11111222,99999999' 
TABS,ioos:station:wmo:42046:1,2005-01-03T15:30:00Z,27.8903,-94.0367,2.0,73.2795541,23.25315032,-99999.0,'11111222,11111222,99999999' 
TABS,ioos:station:wmo:42046:1,2005-01-03T16:00:00Z,27.8903,-94.0367,2.0,76.75106285,23.30017167,-99999.0,'11111222,11111222,99999999' 
TABS,ioos:station:wmo:42046:1,2005-01-03T16:30:00Z,27.8903,-94.0367,2.0,75.13020625,22.17252805,-99999.0,'11111222,11111222,99999999' 
TABS,ioos:station:wmo:42046:1,2005-01-03T17:00:00Z,27.8903,-94.0367,2.0,75.40320808,23.0541146,-99999.0,'11111222,11111222,99999999' 
TABS,ioos:station:wmo:42046:1,2005-01-03T17:30:00Z,27.8903,-94.0367,2.0,67.48687279,22.72157785,-99999.0,'11111222,11111222,99999999' 
TABS,ioos:station:wmo:42046:1,2005-01-03T18:00:00Z,27.8903,-94.0367,2.0,67.1887106,21.1762721,-99999.0,'11111222,11111222,99999999' 
TABS,ioos:station:wmo:42046:1,2005-01-03T18:30:00Z,27.8903,-94.0367,2.0,68.55619289,19.63952138,-99999.0,'11111222,11111222,99999999' 
TABS,ioos:station:wmo:42046:1,2005-01-03T19:00:00Z,27.8903,-94.0367,2.0,70.81685779,22.52049955,-99999.0,'11111222,11111222,99999999' 
TABS,ioos:station:wmo:42046:1,2005-01-03T19:30:00Z,27.8903,-94.0367,2.0,69.24008194,21.04647239,-99999.0,'11111222,11111222,99999999' 
TABS,ioos:station:wmo:42046:1,2005-01-03T20:00:00Z,27.8903,-94.0367,2.0,66.9509823,20.12671856,-99999.0,'11111222,11111222,99999999' 
TABS,ioos:station:wmo:42046:1,2005-01-03T20:30:00Z,27.8903,-94.0367,2.0,72.06647536,19.87567609,-99999.0,'11111222,11111222,99999999' 
TABS,ioos:station:wmo:42046:1,2005-01-03T21:00:00Z,27.8903,-94.0367,2.0,69.54916251,20.40615838,-99999.0,'11111222,11111222,99999999' 
TABS,ioos:station:wmo:42046:1,2005-01-03T21:30:00Z,27.8903,-94.0367,2.0,68.76861519,18.66701904,-99999.0,'11111222,11111222,99999999' 
TABS,ioos:station:wmo:42046:1,2005-01-03T22:00:00Z,27.8903,-94.0367,2.0,68.10924807,19.04308011,-99999.0,'11111222,11111222,99999999' 
TABS,ioos:station:wmo:42046:1,2005-01-03T22:30:00Z,27.8903,-94.0367,2.0,69.26133935,17.62180467,-99999.0,'11111222,11111222,99999999' 
TABS,ioos:station:wmo:42046:1,2005-01-03T23:00:00Z,27.8903,-94.0367,2.0,67.2912419,15.36078774,-99999.0,'11111222,11111222,99999999' 
TABS,ioos:station:wmo:42046:1,2005-01-03T23:30:00Z,27.8903,-94.0367,2.0,70.97076243,15.24299839,-99999.0,'11111222,11111222,99999999' 
TABS,ioos:station:wmo:42046:1,2005-01-04T00:00:00Z,27.8903,-94.0367,2.0,74.68170003,11.92361103,-99999.0,'11111222,11111222,99999999' 
TABS,ioos:station:wmo:42046:1,2005-01-04T00:30:00Z,27.8903,-94.0367,2.0,76.05623474,13.52865477,-99999.0,'11111222,11111222,99999999' 
TABS,ioos:station:wmo:42046:1,2005-01-04T01:00:00Z,27.8903,-94.0367,2.0,64.06808623,12.14259033,-99999.0,'11111222,11111222,99999999' 
TABS,ioos:station:wmo:42046:1,2005-01-04T01:30:00Z,27.8903,-94.0367,2.0,70.43430123,11.37692841,-99999.0,'11111222,11111222,99999999' 
TABS,ioos:station:wmo:42046:1,2005-01-04T02:00:00Z,27.8903,-94.0367,2.0,77.88618538,12.58012719,-99999.0,'11111222,11111222,99999999' 
TABS,ioos:station:wmo:42046:1,2005-01-04T02:30:00Z,27.8903,-94.0367,2.0,82.94216985,10.58017013,-99999.0,'11111222,11111222,99999999' 
TABS,ioos:station:wmo:42046:1,2005-01-04T03:00:00Z,27.8903,-94.0367,2.0,81.24261714,11.62553225,-99999.0,'11111222,11111222,99999999' 
TABS,ioos:station:wmo:42046:1,2005-01-04T03:30:00Z,27.8903,-94.0367,2.0,83.56816968,10.35517745,-99999.0,'11111222,11111222,99999999' 
TABS,ioos:station:wmo:42046:1,2005-01-04T04:00:00Z,27.8903,-94.0367,2.0,77.02386927,9.307684997,-99999.0,'11133222,11111222,99999999' 
TABS,ioos:station:wmo:42046:1,2005-01-04T04:30:00Z,27.8903,-94.0367,2.0,74.45133189,8.729473065,-99999.0,'11133222,11111222,99999999' 
TABS,ioos:station:wmo:42046:1,2005-01-04T05:00:00Z,27.8903,-94.0367,2.0,69.19463121,7.798525502,-99999.0,'11133222,11111222,99999999' 
TABS,ioos:station:wmo:42046:1,2005-01-04T05:30:00Z,27.8903,-94.0367,2.0,66.35799659,10.34856995,-99999.0,'11111222,11111222,99999999' 
TABS,ioos:station:wmo:42046:1,2005-01-04T06:00:00Z,27.8903,-94.0367,2.0,74.77121144,9.555548127,-99999.0,'11133222,11111222,99999999' 
TABS,ioos:station:wmo:42046:1,2005-01-04T06:30:00Z,27.8903,-94.0367,2.0,82.73734033,9.808695122,-99999.0,'11133222,11111222,99999999' 
TABS,ioos:station:wmo:42046:1,2005-01-04T07:00:00Z,27.8903,-94.0367,2.0,93.15251304,5.818805719,-99999.0,'11133222,11111222,99999999' 
TABS,ioos:station:wmo:42046:1,2005-01-04T07:30:00Z,27.8903,-94.0367,2.0,71.06181677,6.840270462,-99999.0,'11133222,11111222,99999999' 
TABS,ioos:station:wmo:42046:1,2005-01-04T08:00:00Z,27.8903,-94.0367,2.0,54.19178742,6.153056151,-99999.0,'11133222,11111222,99999999' 
TABS,ioos:station:wmo:42046:1,2005-01-04T08:30:00Z,27.8903,-94.0367,2.0,35.34515071,8.6430608,-99999.0,'11133222,11111222,99999999' 
TABS,ioos:station:wmo:42046:1,2005-01-04T09:00:00Z,27.8903,-94.0367,2.0,44.37280571,7.750354831,-99999.0,'11133222,11111222,99999999' 
TABS,ioos:station:wmo:42046:1,2005-01-04T09:30:00Z,27.8903,-94.0367,2.0,27.55893316,11.08809271,-99999.0,'11111222,11111222,99999999' 
TABS,ioos:station:wmo:42046:1,2005-01-04T10:00:00Z,27.8903,-94.0367,2.0,44.30091096,9.850730937,-99999.0,'11133222,11111222,99999999' 
TABS,ioos:station:wmo:42046:1,2005-01-04T10:30:00Z,27.8903,-94.0367,2.0,46.03118663,12.57439462,-99999.0,'11111222,11111222,99999999' 
TABS,ioos:station:wmo:42046:1,2005-01-04T11:00:00Z,27.8903,-94.0367,2.0,37.0962208,13.67810659,-99999.0,'11111222,11111222,99999999' 
TABS,ioos:station:wmo:42046:1,2005-01-04T11:30:00Z,27.8903,-94.0367,2.0,40.44289861,14.50619523,-99999.0,'11111222,11111222,99999999' 
TABS,ioos:station:wmo:42046:1,2005-01-04T12:00:00Z,27.8903,-94.0367,2.0,45.24577348,14.84230777,-99999.0,'11111222,11111222,99999999' 
TABS,ioos:station:wmo:42046:1,2005-01-04T12:30:00Z,27.8903,-94.0367,2.0,41.91767715,12.22942762,-99999.0,'11111222,11111222,99999999' 
TABS,ioos:station:wmo:42046:1,2005-01-04T13:00:00Z,27.8903,-94.0367,2.0,36.52239675,18.1303337,-99999.0,'11111222,11111222,99999999' 
TABS,ioos:station:wmo:42046:1,2005-01-04T13:30:00Z,27.8903,-94.0367,2.0,38.72031283,19.26404423,-99999.0,'11111222,11111222,99999999' 
TABS,ioos:station:wmo:42046:1,2005-01-04T14:00:00Z,27.8903,-94.0367,2.0,43.6981556,19.29485424,-99999.0,'11111222,11111222,99999999' 
TABS,ioos:station:wmo:42046:1,2005-01-04T14:30:00Z,27.8903,-94.0367,2.0,42.88042703,21.22065268,-99999.0,'11111222,11111222,99999999' 
TABS,ioos:station:wmo:42046:1,2005-01-04T15:00:00Z,27.8903,-94.0367,2.0,45.73746022,21.97869878,-99999.0,'11111222,11111222,99999999' 
TABS,ioos:station:wmo:42046:1,2005-01-04T15:30:00Z,27.8903,-94.0367,2.0,45.12301939,23.07294736,-99999.0,'11111222,11111222,99999999' 
TABS,ioos:station:wmo:42046:1,2005-01-04T16:00:00Z,27.8903,-94.0367,2.0,48.88348132,22.55191788,-99999.0,'11111222,11111222,99999999' 
TABS,ioos:station:wmo:42046:1,2005-01-04T16:30:00Z,27.8903,-94.0367,2.0,50.35392572,25.31170875,-99999.0,'11111222,11111222,99999999' 
TABS,ioos:station:wmo:42046:1,2005-01-04T17:00:00Z,27.8903,-94.0367,2.0,55.32778187,23.78349217,-99999.0,'11111222,11111222,99999999' 
TABS,ioos:station:wmo:42046:1,2005-01-04T17:30:00Z,27.8903,-94.0367,2.0,54.70826044,24.11114473,-99999.0,'11111222,11111222,99999999' 
TABS,ioos:station:wmo:42046:1,2005-01-04T18:00:00Z,27.8903,-94.0367,2.0,58.70088966,28.12281992,-99999.0,'11111222,11111222,99999999' 
TABS,ioos:station:wmo:42046:1,2005-01-04T18:30:00Z,27.8903,-94.0367,2.0,67.88448072,27.09335712,-99999.0,'11111222,11111222,99999999' 
TABS,ioos:station:wmo:42046:1,2005-01-04T19:00:00Z,27.8903,-94.0367,2.0,66.1899547,25.95944722,-99999.0,'11111222,11111222,99999999' 